Hays, KS

6:00 AM CST on November 22, 2019 (GMT -0600)
Hays Regional

Weather History for KHYS - October, 2019

Change the Weather History Date:

Saturday, October 12, 2019

  Actual Average Record
Temperature  
Mean Temperature 48 °F -  
Max Temperature 68 °F 68 °F 89 °F (1999)
Min Temperature 30 °F 42 °F 33 °F (2003)
Degree Days  
Heating Degree Days 17    
Moisture  
Dew Point 24 °F    
Average Humidity 43    
Maximum Humidity 73    
Minimum Humidity 17    
Precipitation  
Precipitation 0.00 in - - ()
Sea Level Pressure  
Sea Level Pressure 30.02 in    
Wind  
Wind Speed 7 mph (WSW)    
Max Wind Speed 14 mph    
Max Gust Speed 17 mph    
Visibility 9 miles    
Events      
Averages and records for this station are not official NWS values.
T = Trace of Precipitation, MM = Missing Value Source: NWS Daily Summary

Daily Weather History Graph

Daily Weather History Graph

Search for Another Location

Airport or City:

Astronomy

Oct. 12, 2019 Rise Set
Actual Time 7:43 AM CDT 7:03 PM CDT
Civil Twilight 7:16 AM CDT 7:29 PM CDT
Nautical Twilight 6:45 AM CDT 8:00 PM CDT
Astronomical Twilight 6:14 AM CDT 8:31 PM CDT
Moon 6:58 PM CDT (10/12) 6:23 AM CDT (10/12)
Length of Visible Light 12h 13m
Length of Day
11h 19m
Waxing Gibbous, 99% of the Moon is Illuminated
Oct 12
Waxing Gibbous
Oct 13
Full
Oct 21
Last Quarter
Oct 27
New
Nov 4
First Quarter

Hourly Weather History & Observations

Time (CDT) Temp. Windchill Dew Point Humidity Pressure Visibility Wind Dir Wind Speed Gust Speed Precip Events Conditions
12:56 AM 32.0 °F 25.6 °F 21.9 °F 66% 30.22 in 10.0 mi WSW 6.9 mph - N/A   Clear
1:56 AM 30.9 °F 22.8 °F 21.9 °F 69% 30.20 in 10.0 mi SW 9.2 mph - N/A   Clear
3:56 AM 32.0 °F 24.2 °F 21.0 °F 64% 30.15 in 10.0 mi SW 9.2 mph - N/A   Clear
4:56 AM 33.1 °F 23.9 °F 19.9 °F 59% 30.13 in 10.0 mi SW 12.7 mph - N/A   Clear
5:56 AM 34.0 °F 25.5 °F 19.0 °F 54% 30.11 in 10.0 mi WSW 11.5 mph - N/A   Clear
6:56 AM 34.0 °F 28.0 °F 19.9 °F 56% 30.11 in 10.0 mi WSW 6.9 mph - N/A   Clear
7:56 AM 32.0 °F 28.7 °F 21.9 °F 66% 30.11 in 10.0 mi WSW 3.5 mph - N/A   Clear
8:56 AM 37.0 °F 28.9 °F 25.0 °F 62% 30.10 in 10.0 mi SW 12.7 mph - N/A   Clear
9:56 AM 46.0 °F 41.4 °F 27.0 °F 47% 30.09 in 10.0 mi WSW 9.2 mph - N/A   Clear
10:56 AM 53.1 °F - 27.0 °F 37% 30.07 in 10.0 mi SW 9.2 mph - N/A   Clear
11:56 AM 57.9 °F - 28.9 °F 33% 30.03 in 10.0 mi SW 13.8 mph - N/A   Clear
12:56 PM 62.1 °F - 27.0 °F 26% 30.02 in 10.0 mi WNW 8.1 mph 17.3 mph N/A   Clear
1:56 PM 64.0 °F - 26.1 °F 24% 29.99 in 10.0 mi West 9.2 mph - N/A   Clear
2:56 PM 64.9 °F - 24.1 °F 21% 29.95 in 10.0 mi WSW 5.8 mph - N/A   Clear
3:56 PM 66.9 °F - 23.0 °F 19% 29.93 in 10.0 mi North 4.6 mph - N/A   Clear
4:56 PM 66.9 °F - 21.9 °F 18% 29.93 in 10.0 mi NNW 4.6 mph - N/A   Clear
5:56 PM 66.9 °F - 19.9 °F 17% 29.92 in 10.0 mi Calm Calm - N/A   Clear
6:56 PM 63.0 °F - 23.0 °F 22% 29.93 in 10.0 mi Calm Calm - N/A   Clear
7:34 PM 60.8 °F - 21.2 °F 22% 29.92 in 1.0 mi ESE 3.5 mph - N/A   Haze
7:44 PM 57.2 °F - 23.0 °F 27% 29.92 in 4.0 mi ESE 3.5 mph - N/A   Haze
7:56 PM 55.9 °F - 24.1 °F 29% 29.95 in 8.0 mi Calm Calm - N/A   Clear
8:56 PM 52.0 °F - 25.0 °F 35% 29.95 in 10.0 mi NNE 4.6 mph - N/A   Clear
9:56 PM 44.1 °F 42.5 °F 30.0 °F 58% 29.95 in 10.0 mi North 3.5 mph - N/A   Clear
10:56 PM 39.9 °F - 30.0 °F 68% 29.94 in 10.0 mi Calm Calm - N/A   Clear
11:56 PM 37.9 °F 33.5 °F 30.0 °F 73% 29.93 in 10.0 mi South 5.8 mph - N/A   Clear